Location: Unspecified
(0.0000°N, 0.0000°E)
Time: 21:35:38
(UTC+01:00)

Tiros 1 despin weight - All Passes

Search period start: 09 February 2016 00:00
Search period end: 19 February 2016 00:00
Orbit: 597 x 645 km, 48.2° (Epoch: 08 February)

Date Brightness Start Highest point End Pass type
(mag) Time Alt. Az. Time Alt. Az. Time Alt. Az.
09 Feb - 02:22:53 10° NNE 02:25:37 16° NE 02:28:23 10° E night (unlit)
09 Feb - 04:02:51 10° WNW 04:07:04 38° SW 04:11:22 10° SSE visible
09 Feb - 14:30:46 10° S 14:34:36 26° SE 14:38:22 10° ENE daylight
09 Feb - 16:12:28 10° WSW 16:16:02 23° NW 16:19:34 10° N daylight
10 Feb - 02:38:48 10° NNW 02:43:04 42° NE 02:47:25 10° ESE night (unlit)
10 Feb - 04:22:05 10° W 04:24:34 14° SW 04:27:06 10° SSW night (unlit)
10 Feb - 14:47:27 10° SSW 14:52:03 73° SE 14:56:33 10° NE daylight
11 Feb - 02:56:00 10° NW 03:00:29 66° SW 03:05:04 10° SSE night (unlit)
11 Feb - 13:25:09 10° SSE 13:27:58 16° SE 13:30:45 10° E daylight
11 Feb - 15:05:12 10° WSW 15:09:28 38° NW 15:13:39 10° NNE daylight
12 Feb - 01:32:48 10° N 01:36:29 25° NE 01:40:13 10° ESE night (unlit)
12 Feb - 03:14:18 10° WNW 03:17:56 24° SW 03:21:38 10° S night (unlit)
12 Feb - 13:41:05 10° SSW 13:45:28 42° SE 13:49:45 10° ENE daylight
12 Feb - 15:24:26 10° W 15:26:55 14° NW 15:29:22 10° NNW daylight
13 Feb - 01:49:27 10° NNW 01:53:55 71° NE 01:58:28 10° SE night (unlit)
13 Feb - 13:58:17 10° SW 14:02:53 67° NW 14:07:23 10° NNE daylight
14 Feb - 00:27:21 10° NNE 00:29:53 15° NE 00:32:26 10° E night (unlit)
14 Feb - 02:07:07 10° WNW 02:11:20 39° SW 02:15:37 10° SSE night (unlit)
14 Feb - 12:35:01 10° S 12:38:50 25° SE 12:42:37 10° ENE daylight
14 Feb - 14:16:35 10° WSW 14:20:18 24° NW 14:23:58 10° N daylight
15 Feb - 00:43:09 10° NNW 00:47:20 40° NE 00:51:35 10° ESE night (unlit)
15 Feb - 02:26:15 10° W 02:28:49 15° SW 02:31:24 10° SSW night (unlit)
15 Feb - 12:51:39 10° SSW 12:56:17 70° SE 13:00:49 10° NE daylight
16 Feb - 01:00:17 10° NW 01:04:44 69° SW 01:09:15 10° SSE night (unlit)
16 Feb - 11:29:26 10° SSE 11:32:11 15° SE 11:34:55 10° E daylight
16 Feb - 13:09:20 10° WSW 13:13:41 40° NW 13:17:59 10° NNE daylight
16 Feb - 23:37:10 10° N 23:40:44 23° NE 23:44:20 10° ESE night (unlit)
17 Feb - 01:18:32 10° WNW 01:22:10 24° SW 01:25:52 10° S night (unlit)
17 Feb - 11:45:17 10° SSW 11:49:40 40° SE 11:53:59 10° ENE daylight
17 Feb - 13:28:25 10° W 13:31:07 15° NW 13:33:48 10° NNW daylight
17 Feb - 23:53:44 10° NNW 23:58:08 67° NE 00:02:37 10° SE night (unlit)
18 Feb - 12:02:25 10° SW 12:07:04 71° NW 12:11:39 10° NNE daylight
18 Feb - 22:31:47 10° NNE 22:34:07 14° NE 22:36:26 10° E night (unlit)
